Location: Chervonnoye
(48.6000°N, 34.4000°E)
Time: 06:04:51
(UTC+00:00)

Cosmos 841 Rocket - Pass Details

Date: 23 November 2020
Orbit: 747 x 771 km, 74.0° (Epoch: 18 January)

Event Time Altitude Azimuth Distance (km) Brightness Sun altitude
Rises 14:50:33 0° 208° (SSW) 3,223 7.6 -9.2°
Reaches altitude 10° 14:52:55 10° 210° (SSW) 2,298 6.8 -9.5°
Maximum altitude 14:58:08 70° 295° (WNW) 811 3.8 -10.4°
Drops below altitude 10° 15:03:20 10° 19° (NNE) 2,298 5.6 -11.2°
Enters shadow 15:05:14 - 22° (NNE) 3,034 6.2 -11.5°
